Le nostre stazioni meteo in Italia

Pubblicità
Il mio iltempo24.it
Salsburgh, Gran Bretagna (99024): Temperatura & dewpoint: 10.12.2017 16:00:00 - 16.12.2017 16:00:00 (GMT)Salsburgh, Gran Bretagna (99024): velocità del vento & gusts: 10.12.2017 16:00:00 - 16.12.2017 16:00:00 (GMT)Salsburgh, Gran Bretagna (99024): direzione del vento: 10.12.2017 16:00:00 - 16.12.2017 16:00:00 (GMT)Salsburgh, Gran Bretagna (99024): precipitazioni: 10.12.2017 16:00:00 - 16.12.2017 16:00:00 (GMT)
Data & Tempo tt [°C] td [°C] ff [km/h] ff [kn] fx [km/h] fx [kn] dd rr [mm]
16.12.2017 16:00:00 -0,3 -0,9 5 3 - - SSO 0,0
16.12.2017 15:00:00 0,2 -0,2 5 3 - - SO 0,0
16.12.2017 14:00:00 1,5 1,3 5 3 - - SO 0,0
16.12.2017 13:00:00 0,2 0,0 5 3 - - OSO 0,0
16.12.2017 12:00:00 0,3 0,0 8 4 - - OSO 0,0
16.12.2017 11:00:00 1,0 0,3 9 5 - - OSO 0,0
16.12.2017 10:00:00 -0,3 -0,8 11 6 - - O 0,0
16.12.2017 09:00:00 -0,5 -1,1 8 4 - - OSO 0,0
16.12.2017 08:00:00 -1,3 -2,0 8 4 - - SO 0,0
16.12.2017 07:00:00 -1,1 -2,0 8 4 - - SSO 0,0
16.12.2017 06:00:00 -1,4 -2,2 9 5 - - SO 0,0
16.12.2017 05:00:00 -1,6 -2,5 11 6 - - SO 0,0
16.12.2017 04:00:00 -1,2 -2,3 11 6 - - O 0,0
16.12.2017 03:00:00 -1,6 -2,8 9 5 - - OSO 0,0
16.12.2017 02:00:00 -2,0 -2,7 5 3 - - SO 0,0
16.12.2017 01:00:00 -2,1 -3,4 8 4 - - SO 0,0
16.12.2017 00:00:00 -1,2 -3,3 15 8 - - ONO 0,0
15.12.2017 23:00:00 -0,4 -2,5 9 5 - - ONO 0,0
15.12.2017 22:00:00 -0,1 -1,7 5 3 - - O 0,0
15.12.2017 21:00:00 -0,5 -1,8 8 4 - - O 0,0
15.12.2017 20:00:00 0,0 -1,1 13 7 - - ONO 0,0
15.12.2017 19:00:00 0,4 -0,8 13 7 - - O 0,0
15.12.2017 18:00:00 - - - - - - - 0,0
15.12.2017 17:00:00 0,5 -1,8 11 6 - - O 0,0
15.12.2017 16:00:00 1,6 -2,1 16 9 - - NO 0,0
15.12.2017 15:00:00 2,5 -1,4 18 10 - - NNO 0,0
15.12.2017 14:00:00 2,6 -1,3 21 11 - - NO 0,0
15.12.2017 13:00:00 2,6 -0,9 18 10 - - NO 0,0
15.12.2017 12:00:00 2,9 -1,1 18 10 - - N 0,0
15.12.2017 11:00:00 2,4 -0,8 24 13 - - N 0,0
15.12.2017 10:00:00 1,8 -0,5 29 16 - - N 0,0
15.12.2017 09:00:00 1,7 -0,5 31 17 - - N 0,0
15.12.2017 08:00:00 1,7 0,1 24 13 - - N 0,0
15.12.2017 07:00:00 2,1 0,7 29 16 46 25 N 0,8
15.12.2017 06:00:00 1,9 0,8 29 16 - - N 0,2
15.12.2017 05:00:00 1,4 0,2 24 13 - - NNO 0,0
15.12.2017 04:00:00 -0,1 -1,1 11 6 - - ONO 0,0
15.12.2017 03:00:00 -0,3 -1,5 11 6 - - NE 0,0
15.12.2017 02:00:00 -1,0 -2,0 9 5 - - NE 0,0
15.12.2017 01:00:00 -0,9 -1,6 13 7 - - NE 0,0
15.12.2017 00:00:00 -1,1 -1,1 16 9 - - NE 0,0
14.12.2017 23:00:00 -0,6 -0,6 18 10 - - NE 0,0
14.12.2017 22:00:00 0,2 0,2 16 9 - - NE 0,0
14.12.2017 21:00:00 0,3 0,3 8 4 - - NE 0,0
14.12.2017 20:00:00 -0,3 -0,3 5 3 - - SSO 0,0
14.12.2017 19:00:00 -0,4 -0,4 8 4 - - SSO 0,0
14.12.2017 18:00:00 0,1 0,1 8 4 - - SO 0,0
14.12.2017 17:00:00 0,1 0,1 15 8 - - OSO 0,0
14.12.2017 16:00:00 -0,1 -0,1 13 7 - - OSO 0,0
14.12.2017 15:00:00 0,7 0,7 16 9 - - ONO 1,0
14.12.2017 14:00:00 0,8 0,8 18 10 - - ONO 4,4
14.12.2017 13:00:00 0,8 0,8 21 11 - - ONO 0,2
14.12.2017 12:00:00 0,5 0,5 11 6 - - OSO 0,0
14.12.2017 11:00:00 0,2 0,2 16 9 - - SSO 0,0
14.12.2017 10:00:00 -0,1 -0,1 21 11 - - SSO 0,0
14.12.2017 09:00:00 0,3 0,3 21 11 - - SSO 0,0
14.12.2017 08:00:00 0,5 0,5 16 9 - - SO 0,0
14.12.2017 07:00:00 0,1 0,1 18 10 - - SO 0,0
14.12.2017 06:00:00 0,3 0,3 28 15 - - SSO 0,0
14.12.2017 05:00:00 0,3 0,3 18 10 - - SO 0,0
14.12.2017 04:00:00 0,0 -0,1 22 12 - - SSO 0,0
14.12.2017 03:00:00 -1,2 -1,2 16 9 - - SSO 0,0
14.12.2017 02:00:00 -0,5 -0,5 18 10 - - SO 0,0
14.12.2017 01:00:00 -0,8 -0,8 22 12 - - OSO 0,0
14.12.2017 00:00:00 -1,1 -1,1 22 12 - - OSO 0,0
13.12.2017 23:00:00 -0,9 -0,9 18 10 - - SO 0,0
13.12.2017 22:00:00 -0,3 -0,3 22 12 - - O 0,0
13.12.2017 21:00:00 -0,7 -0,7 15 8 - - SSO 0,0
13.12.2017 20:00:00 -0,1 -0,1 21 11 - - OSO 0,0
13.12.2017 19:00:00 -0,3 -0,3 15 8 - - OSO 0,0
13.12.2017 18:00:00 0,0 0,0 16 9 - - O 0,0
13.12.2017 17:00:00 -0,1 -0,1 18 10 - - OSO 0,0
13.12.2017 16:00:00 0,2 0,2 24 13 46 25 O 0,2
13.12.2017 15:00:00 1,0 0,7 21 11 - - SO 0,0
13.12.2017 14:00:00 1,3 1,1 18 10 - - OSO 0,2
13.12.2017 13:00:00 0,8 0,7 18 10 - - SO 0,0
13.12.2017 12:00:00 1,3 1,2 21 11 59 32 OSO 0,4
13.12.2017 11:00:00 2,5 2,1 26 14 48 26 O 0,0
13.12.2017 10:00:00 3,2 3,0 29 16 57 31 OSO 2,4
13.12.2017 09:00:00 3,7 3,7 34 18 48 26 SO 0,4
13.12.2017 08:00:00 3,1 3,1 34 18 52 28 SSO 0,4
13.12.2017 07:00:00 3,0 2,8 34 18 52 28 SSO 1,0
13.12.2017 06:00:00 3,2 3,0 35 19 52 28 SSO 0,0
13.12.2017 05:00:00 3,0 3,0 29 16 - - SSO 0,2
13.12.2017 04:00:00 2,7 2,4 21 11 - - S 0,0
13.12.2017 03:00:00 2,6 2,1 22 12 - - SO 0,0
13.12.2017 02:00:00 1,8 1,5 18 10 - - SO 0,6
13.12.2017 01:00:00 1,9 1,6 15 8 - - SSO 0,0
13.12.2017 00:00:00 1,9 1,7 18 10 - - OSO 0,4
12.12.2017 23:00:00 2,7 2,7 26 14 - - OSO 0,0
12.12.2017 22:00:00 2,3 2,3 24 13 - - O 0,0
12.12.2017 21:00:00 2,1 2,0 21 11 - - SO 0,0
12.12.2017 20:00:00 1,4 1,2 29 16 48 26 S 1,4
12.12.2017 19:00:00 0,7 0,5 35 19 46 25 S 0,8
12.12.2017 18:00:00 1,2 0,8 26 14 - - S 0,2
12.12.2017 17:00:00 1,9 1,2 28 15 - - SSO 0,0
12.12.2017 16:00:00 1,9 0,5 24 13 - - SSO 0,0
12.12.2017 15:00:00 2,0 0,7 26 14 - - S 0,0
12.12.2017 14:00:00 1,6 0,8 24 13 - - S 0,0
12.12.2017 13:00:00 1,0 0,2 21 11 - - S 0,0
12.12.2017 12:00:00 0,3 -0,5 18 10 - - S 0,0
12.12.2017 11:00:00 -0,3 -1,1 16 9 - - S 0,0
12.12.2017 10:00:00 -1,0 -1,7 13 7 - - S 0,0
12.12.2017 09:00:00 -2,2 -3,4 15 8 - - SSO 0,0
12.12.2017 08:00:00 -3,4 -4,5 13 7 - - S 0,0
12.12.2017 07:00:00 -2,6 -4,0 8 4 - - S 0,0
12.12.2017 06:00:00 -2,4 -4,0 8 4 - - S 0,0
12.12.2017 05:00:00 -2,4 -3,8 11 6 - - S 0,0
12.12.2017 04:00:00 -1,9 -2,7 8 4 - - S 0,0
12.12.2017 03:00:00 -2,0 -2,9 5 3 - - SSO 0,0
12.12.2017 02:00:00 -1,2 -2,9 11 6 - - O 0,0
12.12.2017 01:00:00 -1,0 -3,2 9 5 - - O 0,0
12.12.2017 00:00:00 -0,2 -2,7 5 3 - - O 0,0
11.12.2017 23:00:00 0,0 -2,8 4 2 - - NO 0,0
11.12.2017 22:00:00 -0,4 -2,8 8 4 - - NNO 0,0
11.12.2017 21:00:00 -0,5 -2,7 5 3 - - SSO 0,0
11.12.2017 20:00:00 -0,7 -2,5 4 2 - - NO 0,0
11.12.2017 19:00:00 -0,4 -2,1 9 5 - - NNO 0,0
11.12.2017 18:00:00 0,6 -1,2 16 9 - - N 0,0
11.12.2017 17:00:00 -0,1 -1,7 5 3 - - NO 0,0
11.12.2017 16:00:00 0,0 -1,7 4 2 - - NO 0,0
11.12.2017 15:00:00 0,3 -1,4 5 3 - - NNO 0,0
11.12.2017 14:00:00 0,0 -1,4 4 2 - - ONO 0,0
11.12.2017 13:00:00 -0,3 -1,8 5 3 - - O 0,2
11.12.2017 12:00:00 0,6 -1,7 4 2 - - O 0,0
11.12.2017 11:00:00 0,8 -1,2 2 1 - - NO 0,0
11.12.2017 10:00:00 -2,1 -2,8 5 3 - - NNO 0,0
11.12.2017 09:00:00 -2,9 -3,1 5 3 - - ONO 0,0
11.12.2017 08:00:00 -2,6 -2,8 8 4 - - ONO 0,0
11.12.2017 07:00:00 -3,0 -3,4 9 5 - - O 0,0
11.12.2017 06:00:00 -3,3 -3,7 9 5 - - OSO 0,0
11.12.2017 05:00:00 -3,9 -4,5 11 6 - - OSO 0,0
11.12.2017 04:00:00 -3,9 -4,8 8 4 - - SO 0,0
11.12.2017 03:00:00 -4,6 -5,9 11 6 - - SSO 0,0
11.12.2017 02:00:00 -6,0 -7,3 9 5 - - S 0,0
11.12.2017 01:00:00 -6,0 -7,9 11 6 - - S 0,0
11.12.2017 00:00:00 -6,4 -8,2 11 6 - - S 0,0
10.12.2017 23:00:00 -6,4 -8,2 11 6 - - S 0,0
10.12.2017 22:00:00 -5,0 -7,0 8 4 - - SSO 0,0
10.12.2017 21:00:00 -5,3 -6,9 8 4 - - SSO 0,0
10.12.2017 20:00:00 -5,5 -6,6 8 4 - - S 0,0
10.12.2017 19:00:00 -5,3 -6,5 5 3 - - S 0,0
10.12.2017 18:00:00 -4,7 -6,3 8 4 - - OSO 0,0
10.12.2017 17:00:00 -5,2 -5,7 5 3 - - SSO 0,0
10.12.2017 16:00:00 -4,1 -6,0 4 2 - - OSO 0,0

tt = Temperatura
td = dewpoint
ff = velocità del vento
fx = gusts
dd = direzione del vento
rr = precipitazioni

Stazioni seguenti

WeatherPro
AMSI
MeteoEarth